,,,PA_Meas_PMT16A,,PR_Meas_QMR101_102,,RH_Meas_QMH101,,SR_Meas_QMS101,,TA_Meas_QMH101,,GenWind,,GenWind,
date,time,status,PA,status,PR,status,RH,status,SR,status,TA,status,DirAvg,status,SpdAvg,
2010-06-01, 00:00:04,VALID,1004.34,VALID,0,VALID,98.0387,VALID,0.100563,VALID,25.2962,VALID,2,VALID,0.430078,
2010-06-01, 00:01:04,VALID,1004.31,VALID,0,VALID,98.0311,VALID,0,VALID,25.3195,VALID,2,VALID,0.289063,
2010-06-01, 00:02:04,VALID,1004.29,VALID,0,VALID,98.0387,VALID,0,VALID,25.339,VALID,2,VALID,0.245703,
2010-06-01, 00:03:04,VALID,1004.3,VALID,0,VALID,98.0464,VALID,0,VALID,25.339,VALID,2,VALID,0,
2010-06-01, 00:04:04,VALID,1004.28,VALID,0,VALID,98.0464,VALID,0,VALID,25.339,VALID,2,VALID,0,
2010-06-01, 00:05:04,VALID,1004.29,VALID,0,VALID,98.0464,VALID,0,VALID,25.3584,VALID,2,VALID,0,
2010-06-01, 00:06:04,VALID,1004.28,VALID,0,VALID,98.0235,VALID,0,VALID,25.3779,VALID,2,VALID,0,
2010-06-01, 00:07:04,VALID,1004.26,VALID,0,VALID,98.0159,VALID,0,VALID,25.3974,VALID,2,VALID,0,
2010-06-01, 00:08:04,VALID,1004.27,VALID,0,VALID,98.054,VALID,0,VALID,25.4383,VALID,2,VALID,0,
2010-06-01, 00:09:04,VALID,1004.28,VALID,0,VALID,98.0616,VALID,0,VALID,25.4169,VALID,2,VALID,0,
2010-06-01, 00:10:04,VALID,1004.23,VALID,0,VALID,98.0616,VALID,0,VALID,25.3974,VALID,2,VALID,0,
2010-06-01, 00:11:04,VALID,1004.21,VALID,0,VALID,98.0616,VALID,0,VALID,25.4383,VALID,2,VALID,0,
2010-06-01, 00:12:04,VALID,1004.22,VALID,0,VALID,98.0693,VALID,0,VALID,25.3955,VALID,2,VALID,0,
2010-06-01, 00:13:04,VALID,1004.21,VALID,0,VALID,98.0845,VALID,0,VALID,25.4169,VALID,2,VALID,0,
2010-06-01, 00:14:04,VALID,1004.23,VALID,0,VALID,98.0693,VALID,0,VALID,25.4383,VALID,2,VALID,0,
2010-06-01, 00:15:04,VALID,1004.16,VALID,0,VALID,98.0693,VALID,0,VALID,25.4363,VALID,2,VALID,0,
2010-06-01, 00:16:04,VALID,1004.17,VALID,0,VALID,98.0464,VALID,0,VALID,25.4558,VALID,2,VALID,0,
2010-06-01, 00:17:04,VALID,1004.18,VALID,0,VALID,98.0616,VALID,0,VALID,25.4539,VALID,2,VALID,0,
2010-06-01, 00:18:04,VALID,1004.2,VALID,0,VALID,98.0769,VALID,0,VALID,25.4344,VALID,2,VALID,0,
2010-06-01, 00:19:04,VALID,1004.2,VALID,0,VALID,98.054,VALID,0,VALID,25.4539,VALID,2,VALID,0,
2010-06-01, 00:20:04,VALID,1004.22,VALID,0,VALID,98.0464,VALID,0,VALID,25.4539,VALID,2,VALID,0,
2010-06-01, 00:21:04,VALID,1004.26,VALID,0,VALID,98.0311,VALID,0,VALID,25.4325,VALID,2,VALID,0,
2010-06-01, 00:22:04,VALID,1004.23,VALID,0,VALID,98.054,VALID,0,VALID,25.4558,VALID,2,VALID,0,
2010-06-01, 00:23:04,VALID,1004.22,VALID,0,VALID,98.0464,VALID,0,VALID,25.4325,VALID,2,VALID,0,
2010-06-01, 00:24:04,VALID,1004.2,VALID,0,VALID,98.0464,VALID,0,VALID,25.4753,VALID,2,VALID,0,
2010-06-01, 00:25:04,VALID,1004.19,VALID,0,VALID,98.054,VALID,0,VALID,25.4734,VALID,2,VALID,0,
2010-06-01, 00:26:04,VALID,1004.2,VALID,0,VALID,98.0387,VALID,0,VALID,25.4734,VALID,2,VALID,0,
2010-06-01, 00:27:04,VALID,1004.17,VALID,0,VALID,98.0464,VALID,0,VALID,25.4734,VALID,2,VALID,0,
2010-06-01, 00:28:04,VALID,1004.17,VALID,0,VALID,98.054,VALID,0,VALID,25.4928,VALID,2,VALID,0,
2010-06-01, 00:29:04,VALID,1004.17,VALID,0,VALID,98.0464,VALID,0.100563,VALID,25.4734,VALID,2,VALID,0,
2010-06-01, 00:30:04,VALID,1004.16,VALID,0,VALID,98.0464,VALID,0,VALID,25.4948,VALID,2,VALID,0,
2010-06-01, 00:31:04,VALID,1004.11,VALID,0,VALID,98.0616,VALID,0,VALID,25.4734,VALID,2,VALID,0,
2010-06-01, 00:32:04,VALID,1004.12,VALID,0,VALID,98.054,VALID,0.100563,VALID,25.4539,VALID,2,VALID,0,
2010-06-01, 00:33:04,VALID,1004.13,VALID,0,VALID,98.054,VALID,0,VALID,25.4539,VALID,2,VALID,0,
2010-06-01, 00:34:04,VALID,1004.12,VALID,0,VALID,98.054,VALID,0,VALID,25.4753,VALID,2,VALID,0,
2010-06-01, 00:35:04,VALID,1004.15,VALID,0,VALID,98.054,VALID,0,VALID,25.4539,VALID,2,VALID,0,
2010-06-01, 00:36:04,VALID,1004.14,VALID,0,VALID,98.0311,VALID,0,VALID,25.4539,VALID,2,VALID,0,
2010-06-01, 00:37:04,VALID,1004.13,VALID,0,VALID,98.0235,VALID,0,VALID,25.4539,VALID,2,VALID,0,
2010-06-01, 00:38:04,VALID,1004.13,VALID,0,VALID,98.0387,VALID,0.100563,VALID,25.4539,VALID,2,VALID,0,
2010-06-01, 00:39:04,VALID,1004.13,VALID,0,VALID,98.0311,VALID,0,VALID,25.4539,VALID,2,VALID,0,
2010-06-01, 00:40:04,VALID,1004.11,VALID,0,VALID,98.0387,VALID,0,VALID,25.4539,VALID,2,VALID,0,
2010-06-01, 00:41:04,VALID,1004.12,VALID,0,VALID,98.0311,VALID,0,VALID,25.4734,VALID,2,VALID,0,
2010-06-01, 00:42:04,VALID,1004.14,VALID,0,VALID,98.0387,VALID,0.100563,VALID,25.4928,VALID,2,VALID,0,
2010-06-01, 00:43:04,VALID,1004.12,VALID,0,VALID,98.0616,VALID,0.100563,VALID,25.4928,VALID,2,VALID,0,
2010-06-01, 00:44:04,VALID,1004.1,VALID,0,VALID,98.0387,VALID,0.100563,VALID,25.4928,VALID,2,VALID,0,
2010-06-01, 00:45:04,VALID,1004.1,VALID,0,VALID,98.0464,VALID,0.100563,VALID,25.5142,VALID,2,VALID,0,
2010-06-01, 00:46:04,VALID,1004.1,VALID,0,VALID,98.0387,VALID,0,VALID,25.5162,VALID,2,VALID,0,
2010-06-01, 00:47:04,VALID,1004.08,VALID,0,VALID,98.0311,VALID,0,VALID,25.4948,VALID,2,VALID,0,
2010-06-01, 00:48:04,VALID,1004.07,VALID,0,VALID,98.0616,VALID,0,VALID,25.4948,VALID,2,VALID,0,
2010-06-01, 00:49:04,VALID,1004.05,VALID,0,VALID,98.0311,VALID,0,VALID,25.5337,VALID,2,VALID,0,
2010-06-01, 00:50:04,VALID,1004.02,VALID,0,VALID,98.0311,VALID,0,VALID,25.5551,VALID,2,VALID,0,
2010-06-01, 00:51:04,VALID,1004,VALID,0,VALID,98.0235,VALID,0,VALID,25.5746,VALID,2,VALID,0,
2010-06-01, 00:52:04,VALID,1003.95,VALID,0,VALID,98.0464,VALID,0,VALID,25.5532,VALID,2,VALID,0,
2010-06-01, 00:53:04,VALID,1003.96,VALID,0,VALID,98.0311,VALID,0,VALID,25.5532,VALID,2,VALID,0,
2010-06-01, 00:54:04,VALID,1003.92,VALID,0,VALID,98.054,VALID,0,VALID,25.5746,VALID,2,VALID,0,
2010-06-01, 00:55:04,VALID,1003.89,VALID,0,VALID,98.054,VALID,0,VALID,25.5746,VALID,2,VALID,0,
2010-06-01, 00:56:04,VALID,1003.88,VALID,0,VALID,98.0693,VALID,0,VALID,25.5337,VALID,2,VALID,0,
2010-06-01, 00:57:04,VALID,1003.87,VALID,0,VALID,98.0845,VALID,0,VALID,25.5746,VALID,2,VALID,0,
2010-06-01, 00:58:04,VALID,1003.85,VALID,0,VALID,98.0998,VALID,0,VALID,25.5142,VALID,2,VALID,0,
2010-06-01, 00:59:04,VALID,1003.82,VALID,0,VALID,98.0921,VALID,0,VALID,25.5357,VALID,2,VALID,0,
2010-06-01, 01:00:04,VALID,1003.82,VALID,0,VALID,98.054,VALID,0,VALID,25.5357,VALID,2,VALID,0,
2010-06-01, 01:01:04,VALID,1003.8,VALID,0,VALID,98.0616,VALID,0,VALID,25.5337,VALID,2,VALID,0,
2010-06-01, 01:02:04,VALID,1003.81,VALID,0,VALID,98.0693,VALID,0,VALID,25.5318,VALID,2,VALID,0,
2010-06-01, 01:03:04,VALID,1003.83,VALID,0,VALID,98.0387,VALID,0,VALID,25.5513,VALID,39,VALID,0.136719,
2010-06-01, 01:04:04,VALID,1003.8,VALID,0,VALID,98.0464,VALID,0,VALID,25.5727,VALID,63,VALID,0.481641,
2010-06-01, 01:05:04,VALID,1003.81,VALID,0,VALID,98.0387,VALID,0,VALID,25.5902,VALID,72,VALID,0.702344,
2010-06-01, 01:06:04,VALID,1003.79,VALID,0,VALID,98.0235,VALID,0,VALID,25.6311,VALID,72,VALID,0.317969,
2010-06-01, 01:07:04,VALID,1003.78,VALID,0,VALID,98.0235,VALID,0,VALID,25.67,VALID,72,VALID,0.237891,
2010-06-01, 01:08:04,VALID,1003.71,VALID,0,VALID,98.0464,VALID,0,VALID,25.6486,VALID,25,VALID,0.713672,
2010-06-01, 01:09:04,VALID,1003.68,VALID,0,VALID,98.0311,VALID,0,VALID,25.6895,VALID,24,VALID,0.510938,
2010-06-01, 01:10:04,VALID,1003.66,VALID,0,VALID,98.0235,VALID,0,VALID,25.7265,VALID,24,VALID,0.328125,
2010-06-01, 01:11:04,VALID,1003.65,VALID,0,VALID,98.0464,VALID,0,VALID,25.7869,VALID,24,VALID,0.394531,
2010-06-01, 01:12:04,VALID,1003.62,VALID,0,VALID,98.0464,VALID,0,VALID,25.7869,VALID,24,VALID,0.249219,
2010-06-01, 01:13:04,VALID,1003.61,VALID,0,VALID,98.0693,VALID,0,VALID,25.8064,VALID,24,VALID,0.0285156,
2010-06-01, 01:14:04,VALID,1003.6,VALID,0,VALID,98.0616,VALID,0,VALID,25.8259,VALID,24,VALID,0.260547,
2010-06-01, 01:15:04,VALID,1003.58,VALID,0,VALID,98.054,VALID,0,VALID,25.8453,VALID,24,VALID,0.192578,
2010-06-01, 01:16:04,VALID,1003.58,VALID,0,VALID,98.0693,VALID,0,VALID,25.8259,VALID,24,VALID,0,
2010-06-01, 01:17:04,VALID,1003.57,VALID,0,VALID,98.0616,VALID,0,VALID,25.8434,VALID,24,VALID,0.0105469,
2010-06-01, 01:18:04,VALID,1003.56,VALID,0,VALID,98.054,VALID,0,VALID,25.8239,VALID,24,VALID,0.400391,
2010-06-01, 01:19:04,VALID,1003.55,VALID,0,VALID,98.0387,VALID,0,VALID,25.8453,VALID,24,VALID,0.201172,
2010-06-01, 01:20:04,VALID,1003.55,VALID,0,VALID,98.0311,VALID,0,VALID,25.8453,VALID,24,VALID,0.0261719,
2010-06-01, 01:21:04,VALID,1003.55,VALID,0,VALID,98.0082,VALID,0,VALID,25.8453,VALID,72,VALID,0.571484,
2010-06-01, 01:22:04,VALID,1003.53,VALID,0,VALID,97.9701,VALID,0,VALID,25.8453,VALID,80,VALID,0.529297,
2010-06-01, 01:23:04,VALID,1003.49,VALID,0,VALID,97.9243,VALID,0,VALID,25.8434,VALID,83,VALID,0.106641,
2010-06-01, 01:24:04,VALID,1003.48,VALID,0,VALID,97.8633,VALID,0,VALID,25.8434,VALID,83,VALID,0,
2010-06-01, 01:25:04,VALID,1003.48,VALID,0,VALID,97.8175,VALID,0,VALID,25.8863,VALID,84,VALID,0.486719,
2010-06-01, 01:26:04,VALID,1003.52,VALID,0,VALID,97.7641,VALID,0,VALID,25.9038,VALID,90,VALID,0.695703,
2010-06-01, 01:27:04,VALID,1003.49,VALID,0,VALID,97.6954,VALID,0,VALID,25.9038,VALID,20,VALID,0.736719,
2010-06-01, 01:28:04,VALID,1003.5,VALID,0,VALID,97.6268,VALID,0,VALID,25.9213,VALID,32,VALID,0.473047,
2010-06-01, 01:29:04,VALID,1003.48,VALID,0,VALID,97.5505,VALID,0,VALID,25.9642,VALID,26,VALID,0.474219,
2010-06-01, 01:30:04,VALID,1003.5,VALID,0,VALID,97.4971,VALID,0,VALID,25.9602,VALID,33,VALID,0.74375,
2010-06-01, 01:31:04,VALID,1003.5,VALID,0,VALID,97.3445,VALID,0,VALID,26.0596,VALID,24,VALID,1.00352,
2010-06-01, 01:32:04,VALID,1003.47,VALID,0,VALID,97.1462,VALID,0,VALID,26.0966,VALID,30,VALID,0.527734,
2010-06-01, 01:33:04,VALID,1003.51,VALID,0,VALID,96.9554,VALID,0,VALID,26.1375,VALID,91,VALID,0.778516,
2010-06-01, 01:34:04,VALID,1003.53,VALID,0,VALID,96.7723,VALID,0,VALID,26.1765,VALID,96,VALID,1.16094,
2010-06-01, 01:35:04,VALID,1003.52,VALID,0,VALID,96.5664,VALID,0,VALID,26.1959,VALID,56,VALID,1.66328,
2010-06-01, 01:36:04,VALID,1003.49,VALID,0,VALID,96.2765,VALID,0,VALID,26.1765,VALID,56,VALID,1.025,
2010-06-01, 01:37:04,VALID,1003.46,VALID,0,VALID,96.1239,VALID,0,VALID,26.1765,VALID,24,VALID,1.63008,
2010-06-01, 01:38:04,VALID,1003.46,VALID,0,VALID,96.0323,VALID,0,VALID,26.157,VALID,26,VALID,1.48164,
2010-06-01, 01:39:04,VALID,1003.45,VALID,0,VALID,96.0247,VALID,0,VALID,26.157,VALID,30,VALID,0.914844,
2010-06-01, 01:40:04,VALID,1003.42,VALID,0,VALID,96.0095,VALID,0,VALID,26.1375,VALID,17,VALID,0.442578,
2010-06-01, 01:41:04,VALID,1003.37,VALID,0,VALID,96.0323,VALID,0,VALID,26.1375,VALID,88,VALID,0.607422,
2010-06-01, 01:42:04,VALID,1003.4,VALID,0,VALID,96.0705,VALID,0,VALID,26.1375,VALID,14,VALID,0.726172,
2010-06-01, 01:43:04,VALID,1003.37,VALID,0,VALID,96.1468,VALID,0,VALID,26.0966,VALID,49,VALID,0.641797,
2010-06-01, 01:44:04,VALID,1003.38,VALID,0,VALID,96.2078,VALID,0,VALID,26.0985,VALID,32,VALID,0.6125,
2010-06-01, 01:45:04,VALID,1003.39,VALID,0,VALID,96.2536,VALID,0,VALID,26.0791,VALID,33,VALID,0.530469,
2010-06-01, 01:46:04,VALID,1003.39,VALID,0,VALID,96.2994,VALID,0,VALID,26.0791,VALID,33,VALID,0.361719,
2010-06-01, 01:47:04,VALID,1003.37,VALID,0,VALID,96.3451,VALID,0,VALID,26.0596,VALID,65,VALID,0.469141,
2010-06-01, 01:48:04,VALID,1003.38,VALID,0,VALID,96.3756,VALID,0,VALID,26.0401,VALID,76,VALID,0.371875,
2010-06-01, 01:49:04,VALID,1003.37,VALID,0,VALID,96.3909,VALID,0,VALID,26.0012,VALID,79,VALID,0.667188,
2010-06-01, 01:50:04,VALID,1003.36,VALID,0,VALID,96.4214,VALID,0,VALID,25.9817,VALID,79,VALID,0.13125,
2010-06-01, 01:51:04,VALID,1003.36,VALID,0,VALID,96.4672,VALID,0,VALID,25.9408,VALID,45,VALID,0.238281,
2010-06-01, 01:52:04,VALID,1003.37,VALID,0,VALID,96.5664,VALID,0,VALID,25.9018,VALID,45,VALID,0.134766,
2010-06-01, 01:53:04,VALID,1003.35,VALID,0,VALID,96.6503,VALID,0,VALID,25.9038,VALID,45,VALID,0.00195313,
2010-06-01, 01:54:04,VALID,1003.37,VALID,0,VALID,96.7266,VALID,0,VALID,25.8648,VALID,39,VALID,0.663281,
2010-06-01, 01:55:04,VALID,1003.4,VALID,0,VALID,96.8258,VALID,0,VALID,25.8453,VALID,11,VALID,0.720703,
2010-06-01, 01:56:04,VALID,1003.4,VALID,0,VALID,96.8944,VALID,0,VALID,25.8453,VALID,11,VALID,0.416406,
2010-06-01, 01:57:04,VALID,1003.38,VALID,0,VALID,96.9173,VALID,0,VALID,25.8259,VALID,11,VALID,0.376953,
2010-06-01, 01:58:04,VALID,1003.38,VALID,0,VALID,96.9249,VALID,0,VALID,25.8473,VALID,11,VALID,0.351172,
2010-06-01, 01:59:04,VALID,1003.4,VALID,0,VALID,96.986,VALID,0,VALID,25.8064,VALID,11,VALID,0.282031,
2010-06-01, 02:00:04,VALID,1003.37,VALID,0,VALID,97.0165,VALID,0,VALID,25.785,VALID,11,VALID,0.0839844,
2010-06-01, 02:01:04,VALID,1003.38,VALID,0,VALID,97.0394,VALID,0,VALID,25.7869,VALID,11,VALID,0,
2010-06-01, 02:02:04,VALID,1003.37,VALID,0,VALID,97.0699,VALID,0,VALID,25.7674,VALID,11,VALID,0,
2010-06-01, 02:03:04,VALID,1003.38,VALID,0,VALID,97.0928,VALID,0,VALID,25.7674,VALID,11,VALID,0,
2010-06-01, 02:04:04,VALID,1003.34,VALID,0,VALID,97.1233,VALID,0,VALID,25.7285,VALID,11,VALID,0.432422,
2010-06-01, 02:05:04,VALID,1003.33,VALID,0,VALID,97.1767,VALID,0,VALID,25.748,VALID,11,VALID,0.503516,
2010-06-01, 02:06:04,VALID,1003.32,VALID,0,VALID,97.2682,VALID,0,VALID,25.7285,VALID,11,VALID,0.387891,
2010-06-01, 02:07:04,VALID,1003.27,VALID,0,VALID,97.3216,VALID,0,VALID,25.6681,VALID,11,VALID,0.301172,
2010-06-01, 02:08:04,VALID,1003.33,VALID,0,VALID,97.3827,VALID,0,VALID,25.6681,VALID,11,VALID,0.220313,
2010-06-01, 02:09:04,VALID,1003.34,VALID,0,VALID,97.4437,VALID,0,VALID,25.6292,VALID,11,VALID,0.285547,
2010-06-01, 02:10:04,VALID,1003.36,VALID,0,VALID,97.4971,VALID,0,VALID,25.6506,VALID,74,VALID,0.528125,
2010-06-01, 02:11:04,VALID,1003.36,VALID,0,VALID,97.5352,VALID,0,VALID,25.6097,VALID,37,VALID,0.479688,
2010-06-01, 02:12:04,VALID,1003.34,VALID,0,VALID,97.5886,VALID,0,VALID,25.6097,VALID,33,VALID,0.48125,
2010-06-01, 02:13:04,VALID,1003.36,VALID,0,VALID,97.6573,VALID,0,VALID,25.6506,VALID,42,VALID,0.157422,
2010-06-01, 02:14:04,VALID,1003.35,VALID,0,VALID,97.7031,VALID,0,VALID,25.6486,VALID,42,VALID,0.0304688,
2010-06-01, 02:15:04,VALID,1003.36,VALID,0,VALID,97.726,VALID,0,VALID,25.6681,VALID,42,VALID,0.00117188,
2010-06-01, 02:16:04,VALID,1003.35,VALID,0,VALID,97.7183,VALID,0,VALID,25.67,VALID,42,VALID,0,
2010-06-01, 02:17:04,VALID,1003.34,VALID,0,VALID,97.7183,VALID,0,VALID,25.6915,VALID,42,VALID,0.105859,
2010-06-01, 02:18:04,VALID,1003.31,VALID,0,VALID,97.7336,VALID,0,VALID,25.6915,VALID,42,VALID,0.220313,
2010-06-01, 02:19:04,VALID,1003.33,VALID,0,VALID,97.726,VALID,0,VALID,25.672,VALID,42,VALID,0.0664063,
2010-06-01, 02:20:04,VALID,1003.32,VALID,0,VALID,97.726,VALID,0,VALID,25.6506,VALID,42,VALID,0.194531,
2010-06-01, 02:21:04,VALID,1003.35,VALID,0,VALID,97.7488,VALID,0,VALID,25.6506,VALID,42,VALID,0.223047,
2010-06-01, 02:22:04,VALID,1003.33,VALID,0,VALID,97.7488,VALID,0,VALID,25.6506,VALID,42,VALID,0.0148437,
2010-06-01, 02:23:04,VALID,1003.33,VALID,0,VALID,97.7412,VALID,0,VALID,25.672,VALID,42,VALID,0.1375,
2010-06-01, 02:24:04,VALID,1003.36,VALID,0,VALID,97.7565,VALID,0,VALID,25.6525,VALID,42,VALID,0.191797,
2010-06-01, 02:25:04,VALID,1003.36,VALID,0,VALID,97.7488,VALID,0,VALID,25.6525,VALID,42,VALID,0.350391,
2010-06-01, 02:26:04,VALID,1003.35,VALID,0,VALID,97.7717,VALID,0,VALID,25.633,VALID,42,VALID,0,
2010-06-01, 02:27:04,VALID,1003.35,VALID,0,VALID,97.7565,VALID,0,VALID,25.6136,VALID,42,VALID,0,
2010-06-01, 02:28:04,VALID,1003.32,VALID,0,VALID,97.7641,VALID,0,VALID,25.5727,VALID,44,VALID,0.00429688,
2010-06-01, 02:29:04,VALID,1003.33,VALID,0,VALID,97.787,VALID,0,VALID,25.6136,VALID,50,VALID,0.40625,
2010-06-01, 02:30:04,VALID,1003.33,VALID,0,VALID,97.7717,VALID,0,VALID,25.5921,VALID,86,VALID,0.481641,
2010-06-01, 02:31:04,VALID,1003.3,VALID,0,VALID,97.7641,VALID,0,VALID,25.6097,VALID,86,VALID,0.218359,
2010-06-01, 02:32:04,VALID,1003.33,VALID,0,VALID,97.7794,VALID,0,VALID,25.6097,VALID,86,VALID,0.217969,
2010-06-01, 02:33:04,VALID,1003.3,VALID,0,VALID,97.7488,VALID,0,VALID,25.6311,VALID,85,VALID,0.148828,
2010-06-01, 02:34:04,VALID,1003.29,VALID,0,VALID,97.7031,VALID,0.100563,VALID,25.6116,VALID,85,VALID,0.161328,
2010-06-01, 02:35:04,VALID,1003.27,VALID,0,VALID,97.6726,VALID,0,VALID,25.6116,VALID,85,VALID,0,
2010-06-01, 02:36:04,VALID,1003.26,VALID,0,VALID,97.6573,VALID,0.100563,VALID,25.5513,VALID,85,VALID,0,
2010-06-01, 02:37:04,VALID,1003.26,VALID,0,VALID,97.6192,VALID,0,VALID,25.5318,VALID,85,VALID,0.06875,
2010-06-01, 02:38:04,VALID,1003.27,VALID,0,VALID,97.642,VALID,0.100563,VALID,25.5532,VALID,85,VALID,0.280078,
2010-06-01, 02:39:04,VALID,1003.27,VALID,0,VALID,97.642,VALID,0.100563,VALID,25.5123,VALID,85,VALID,0.117969,
2010-06-01, 02:40:04,VALID,1003.28,VALID,0,VALID,97.6573,VALID,0,VALID,25.4948,VALID,85,VALID,0.206641,
2010-06-01, 02:41:04,VALID,1003.28,VALID,0,VALID,97.6802,VALID,0,VALID,25.4948,VALID,85,VALID,0.233594,
2010-06-01, 02:42:04,VALID,1003.32,VALID,0,VALID,97.726,VALID,0.100563,VALID,25.4948,VALID,85,VALID,0.297656,
2010-06-01, 02:43:04,VALID,1003.29,VALID,0,VALID,97.7565,VALID,0,VALID,25.4753,VALID,85,VALID,0.319531,
2010-06-01, 02:44:04,VALID,1003.29,VALID,0,VALID,97.787,VALID,0,VALID,25.4539,VALID,85,VALID,0.278906,
2010-06-01, 02:45:04,VALID,1003.26,VALID,0,VALID,97.8099,VALID,0,VALID,25.4558,VALID,85,VALID,0.164063,
2010-06-01, 02:46:04,VALID,1003.25,VALID,0,VALID,97.8099,VALID,0,VALID,25.4558,VALID,85,VALID,0,
2010-06-01, 02:47:04,VALID,1003.24,VALID,0,VALID,97.8099,VALID,0,VALID,25.4363,VALID,85,VALID,0,
2010-06-01, 02:48:04,VALID,1003.27,VALID,0,VALID,97.8404,VALID,0,VALID,25.4363,VALID,85,VALID,0,
2010-06-01, 02:49:04,VALID,1003.28,VALID,0,VALID,97.8709,VALID,0,VALID,25.4363,VALID,85,VALID,0.332422,
2010-06-01, 02:50:04,VALID,1003.28,VALID,0,VALID,97.8938,VALID,0,VALID,25.4948,VALID,86,VALID,0.313672,
2010-06-01, 02:51:04,VALID,1003.27,VALID,0,VALID,97.9243,VALID,0,VALID,25.4928,VALID,86,VALID,0.0148437,
2010-06-01, 02:52:04,VALID,1003.3,VALID,0,VALID,97.8938,VALID,0,VALID,25.4714,VALID,86,VALID,0.152344,
2010-06-01, 02:53:04,VALID,1003.33,VALID,0,VALID,97.9167,VALID,0,VALID,25.5318,VALID,86,VALID,0.530078,
2010-06-01, 02:54:04,VALID,1003.33,VALID,0,VALID,97.9243,VALID,0,VALID,25.5707,VALID,86,VALID,0.412109,
2010-06-01, 02:55:04,VALID,1003.31,VALID,0,VALID,97.9167,VALID,0,VALID,25.6486,VALID,90,VALID,0.401172,
2010-06-01, 02:56:04,VALID,1003.29,VALID,0,VALID,97.9014,VALID,0,VALID,25.7265,VALID,90,VALID,0.217578,
2010-06-01, 02:57:04,VALID,1003.31,VALID,0,VALID,97.8633,VALID,0,VALID,25.7655,VALID,90,VALID,0,
2010-06-01, 02:58:04,VALID,1003.31,VALID,0,VALID,97.8099,VALID,0.100563,VALID,25.8044,VALID,90,VALID,0.250781,
2010-06-01, 02:59:04,VALID,1003.31,VALID,0,VALID,97.7336,VALID,0,VALID,25.8453,VALID,88,VALID,0.448438,
2010-06-01, 03:00:04,VALID,1003.27,VALID,0,VALID,97.642,VALID,0.100563,VALID,25.8823,VALID,77,VALID,0.419531,
2010-06-01, 03:01:04,VALID,1003.28,VALID,0,VALID,97.5276,VALID,0.100563,VALID,25.9018,VALID,77,VALID,0.339063,
2010-06-01, 03:02:04,VALID,1003.28,VALID,0,VALID,97.4055,VALID,0,VALID,25.9038,VALID,77,VALID,0.425,
2010-06-01, 03:03:04,VALID,1003.24,VALID,0,VALID,97.2606,VALID,0,VALID,25.8629,VALID,77,VALID,0.370313,
2010-06-01, 03:04:04,VALID,1003.24,VALID,0,VALID,97.1843,VALID,0,VALID,25.8843,VALID,77,VALID,0.234766,
2010-06-01, 03:05:04,VALID,1003.23,VALID,0,VALID,97.1919,VALID,0,VALID,25.8629,VALID,77,VALID,0.211328,
2010-06-01, 03:06:04,VALID,1003.23,VALID,0,VALID,97.2225,VALID,0,VALID,25.8629,VALID,77,VALID,0.25625,
2010-06-01, 03:07:04,VALID,1003.22,VALID,0,VALID,97.2072,VALID,0,VALID,25.8843,VALID,77,VALID,0.264062,
2010-06-01, 03:08:04,VALID,1003.23,VALID,0,VALID,97.1462,VALID,0.100563,VALID,25.8843,VALID,77,VALID,0.276172,
2010-06-01, 03:09:04,VALID,1003.25,VALID,0,VALID,97.108,VALID,0,VALID,25.8453,VALID,77,VALID,0.291406,
2010-06-01, 03:10:04,VALID,1003.24,VALID,0,VALID,97.108,VALID,0,VALID,25.8064,VALID,77,VALID,0.266016,
2010-06-01, 03:11:04,VALID,1003.23,VALID,0,VALID,97.1538,VALID,0,VALID,25.7655,VALID,77,VALID,0.117578,
2010-06-01, 03:12:04,VALID,1003.25,VALID,0,VALID,97.2301,VALID,0,VALID,25.7674,VALID,77,VALID,0.258594,
2010-06-01, 03:13:04,VALID,1003.23,VALID,0,VALID,97.2911,VALID,0,VALID,25.7071,VALID,77,VALID,0.366406,
2010-06-01, 03:14:04,VALID,1003.21,VALID,0,VALID,97.3521,VALID,0,VALID,25.6895,VALID,77,VALID,0.426562,
2010-06-01, 03:15:04,VALID,1003.2,VALID,0,VALID,97.4208,VALID,0,VALID,25.6895,VALID,77,VALID,0.425,
2010-06-01, 03:16:04,VALID,1003.2,VALID,0,VALID,97.4818,VALID,0,VALID,25.67,VALID,77,VALID,0.339063,
2010-06-01, 03:17:04,VALID,1003.16,VALID,0,VALID,97.5658,VALID,0,VALID,25.6506,VALID,77,VALID,0.502344,
2010-06-01, 03:18:04,VALID,1003.2,VALID,0,VALID,97.6039,VALID,0,VALID,25.6116,VALID,25,VALID,0.744531,
2010-06-01, 03:19:04,VALID,1003.21,VALID,0,VALID,97.642,VALID,0,VALID,25.5727,VALID,22,VALID,0.538281,
2010-06-01, 03:20:04,VALID,1003.25,VALID,0,VALID,97.6573,VALID,0,VALID,25.5337,VALID,22,VALID,0.610156,
2010-06-01, 03:21:04,VALID,1003.27,VALID,0,VALID,97.726,VALID,0,VALID,25.4948,VALID,22,VALID,0.444531,
2010-06-01, 03:22:04,VALID,1003.29,VALID,0,VALID,97.7794,VALID,0,VALID,25.4948,VALID,22,VALID,0.237109,
2010-06-01, 03:23:04,VALID,1003.28,VALID,0,VALID,97.8328,VALID,0,VALID,25.4948,VALID,22,VALID,0.255078,
2010-06-01, 03:24:04,VALID,1003.28,VALID,0,VALID,97.8633,VALID,0,VALID,25.4753,VALID,22,VALID,0.273828,
2010-06-01, 03:25:04,VALID,1003.28,VALID,0,VALID,97.8862,VALID,0,VALID,25.4558,VALID,22,VALID,0.298828,
2010-06-01, 03:26:04,VALID,1003.29,VALID,0,VALID,97.9396,VALID,0,VALID,25.4772,VALID,22,VALID,0.423438,
2010-06-01, 03:27:04,VALID,1003.33,VALID,0,VALID,97.9319,VALID,0,VALID,25.4558,VALID,22,VALID,0.466016,
2010-06-01, 03:28:04,VALID,1003.29,VALID,0,VALID,97.9625,VALID,0,VALID,25.4558,VALID,22,VALID,0.492188,
2010-06-01, 03:29:04,VALID,1003.34,VALID,0,VALID,97.9701,VALID,0,VALID,25.4558,VALID,22,VALID,0.499219,
2010-06-01, 03:30:04,VALID,1003.32,VALID,0,VALID,98.0159,VALID,0,VALID,25.4344,VALID,22,VALID,0.259766,
2010-06-01, 03:31:04,VALID,1003.32,VALID,0,VALID,98.0235,VALID,0,VALID,25.4363,VALID,22,VALID,0.288281,
2010-06-01, 03:32:04,VALID,1003.34,VALID,0,VALID,98.0311,VALID,0,VALID,25.4169,VALID,22,VALID,0.462109,
2010-06-01, 03:33:04,VALID,1003.36,VALID,0,VALID,98.0159,VALID,0,VALID,25.4169,VALID,21,VALID,0.694531,
2010-06-01, 03:34:04,VALID,1003.33,VALID,0,VALID,98.0387,VALID,0,VALID,25.3955,VALID,21,VALID,0.721094,
2010-06-01, 03:35:04,VALID,1003.34,VALID,0,VALID,98.0311,VALID,0,VALID,25.4558,VALID,12,VALID,0.800391,
2010-06-01, 03:36:04,VALID,1003.32,VALID,0,VALID,98.0082,VALID,0,VALID,25.4539,VALID,12,VALID,0.648828,
2010-06-01, 03:37:04,VALID,1003.32,VALID,0,VALID,98.0387,VALID,0,VALID,25.4753,VALID,12,VALID,0.661328,
2010-06-01, 03:38:04,VALID,1003.28,VALID,0,VALID,98.0082,VALID,0,VALID,25.4948,VALID,12,VALID,0.323047,
2010-06-01, 03:39:04,VALID,1003.3,VALID,0,VALID,98.0387,VALID,0,VALID,25.4948,VALID,12,VALID,0.0691406,
2010-06-01, 03:40:04,VALID,1003.29,VALID,0,VALID,98.0616,VALID,0,VALID,25.4734,VALID,12,VALID,0.253906,
2010-06-01, 03:41:04,VALID,1003.28,VALID,0,VALID,98.0464,VALID,0,VALID,25.5142,VALID,12,VALID,0.173438,
2010-06-01, 03:42:04,VALID,1003.28,VALID,0,VALID,98.054,VALID,0,VALID,25.4928,VALID,12,VALID,0.0992187,
2010-06-01, 03:43:04,VALID,1003.26,VALID,0,VALID,98.054,VALID,0,VALID,25.5337,VALID,12,VALID,0,
2010-06-01, 03:44:04,VALID,1003.28,VALID,0,VALID,98.054,VALID,0,VALID,25.5337,VALID,12,VALID,0,
2010-06-01, 03:45:04,VALID,1003.27,VALID,0,VALID,98.0464,VALID,0,VALID,25.5123,VALID,12,VALID,0,
2010-06-01, 03:46:04,VALID,1003.29,VALID,0,VALID,98.0769,VALID,0,VALID,25.5532,VALID,12,VALID,0.387109,
2010-06-01, 03:47:04,VALID,1003.31,VALID,0,VALID,98.0387,VALID,0,VALID,25.5532,VALID,40,VALID,0.525391,
2010-06-01, 03:48:04,VALID,1003.26,VALID,0,VALID,98.0616,VALID,0,VALID,25.5727,VALID,42,VALID,0.397266,
2010-06-01, 03:49:04,VALID,1003.28,VALID,0,VALID,98.0616,VALID,0,VALID,25.5727,VALID,42,VALID,0.280078,
2010-06-01, 03:50:04,VALID,1003.26,VALID,0,VALID,98.0693,VALID,0,VALID,25.5921,VALID,42,VALID,0,
2010-06-01, 03:51:04,VALID,1003.27,VALID,0,VALID,98.0616,VALID,0,VALID,25.5707,VALID,47,VALID,0.4,